Das Wetter in  D-61279 Heinzenberg / Taunus





Wetter Minimum- & Maximum-Werte im Dezember 2009

Standort: Heinzenberg / Taunus - Höhe 297 m         8 24' 1" Ost 50 21' 51" Nord
(   3-stündige Aktualisierung    letzte Aktualisierung um 19:04 am 31.12.2009  )


Messgrösse

Minimum

Maximum

Durchschnitt

Temperatur West /
Luftfeuchte West
Anklicken für Monats-Diagramm

-18,1 C

00:37
20.12.2009

65 %

15:09
17.12.2009

9,4 C

15:45
06.12.2009

99 %

10:51
07.12.2009

Temp

0,9 C

Feuchte

90 %

Temperatur Ost /
Luftfeuchte Ost
Anklicken für Monats-Diagramm

-18,2 C

01:12
20.12.2009

--

--
--

9,3 C

15:45
06.12.2009

--

--
--

0,8 C

--

Luftdruck Anklicken für Monats-Diagramm

983,3 hPa

05:16
25.12.2009

1028,5 hPa

01:40
12.12.2009

1009,2 hPa

Taupunkt

-20,0 C

00:37
20.12.2009

8,5 C

21:10
06.12.2009

-0,6 C

Windchill
( gefühlte Temperatur )

-29,1 C

05:01
19.12.2009

8,7 C

23:41
06.12.2009

-2,4 C

Windgeschwindigkeit /
Windrichtung
Anklicken für Monats-Diagramm

---

58,3 km/h / W

12:27
25.12.2009

9,0 km/h
W-SW

Helligkeit /
Sonnenschein
Anklicken für Monats-Diagramm
Anklicken für Monats-Diagramm

Sonnenschein:

37:55 Stunden

Max: 5:45 Std am
07.12.2009

47,9 klux

11:17
02.12.2009

8,0 klux

Solarstrahlung Anklicken für Monats-Diagramm

---

328 W/m

11:17
02.12.2009

63 W/m

Regenmenge
    Dezember 2009
Anklicken für Monats-Diagramm

Insgesamt 83,6 l/m

in 131:27 Stunden
an 24 Tagen

16,3 l/m

19:36
29.12.2009

Gesamtmenge

83,6 l/m

Regen-Tage
    Dezember 2009
Anklicken für Monats-Diagramm

>   0 mm/Tag

>   2 mm/Tag

>   5 mm/Tag

> 10 mm/Tag

> 20 mm/Tag

24 Tage     
10 Tage     
6 Tage     
3 Tage     
0 Tage     

Eisige Tage Dezember 2009 / 2008

Tmin ≤ -10C     

3 Tage

/

2 Tage

Eistage Dezember 2009 / 2008

Tmax <     0C     

8 Tage

/

3 Tage

Frosttage Dezember 2009 / 2008

Tmin ≤     0C     

16 Tage

/

22 Tage

Kalte Tage Dezember 2009 / 2008

Tmax <   10C     

31 Tage

/

31 Tage

Warme Tage Dezember 2009 / 2008

Tmax ≥   20C     

0 Tage

/

0 Tage

Sommertage Dezember 2009 / 2008

Tmax ≥   25C     

0 Tage

/

0 Tage

Heisse Tage Dezember 2009 / 2008

Tmax ≥   30C     

0 Tage

/

0 Tage


Monatsdiagramm Dezember 2009

Die Kurven zeigen den Durchschnittswert des jeweiligen Tages an


Wetter-Monatsübersicht Dezember 2009
Datum
  Temperatur
   Luftdruck
   Wind
  Regen
   Luftfeuchte
   Helligkeit

Sonnen-
schein


Temp.

Min.
Temp.

Max.
Temp.


Luftdruck

Min.
Luftdruck

Max.
Luftdruck

-Geschw.
Haupt-Richtg.

Max.
Wind

Menge /
Dauer


Feuchte

Min.
Feuchte

Max.
Feuchte


Helligkeit

Max.
Helligkeit

1.
Dezember
4,4 C2,7 C
23:47
6,0 C
14:15
1009,2 hPa1003,1 hPa
00:55
1013,7 hPa
23:47
1,0 km/h
NW
7,7 km/h
12:20  
---
40 Minuten
93 %86 %
14:25
97 %
07:55
5,53 klux17,00 klux
11:40
--- 
2.
Dezember
4,9 C2,3 C
02:32
7,6 C
13:52
1011,7 hPa1008,0 hPa
23:23
1013,7 hPa
02:32
10,4 km/h
W-SW
26,8 km/h
23:33  
---
31 Minuten
85 %72 %
13:57
96 %
04:12
18,2 klux47,9 klux
11:17
4:15 Std 
3.
Dezember
7,0 C4,9 C
02:58
8,6 C
14:33
1005,2 hPa1002,6 hPa
19:08
1008,1 hPa
00:23
15,6 km/h
SW
30,2 km/h
11:08  
0,2 l/m
1:45 Stunden
82 %75 %
00:03
90 %
23:18
7,9 klux30,1 klux
14:23
25 Min 
4.
Dezember
3,5 C0,8 C
19:18
7,0 C
00:13
1010,2 hPa1003,8 hPa
00:13
1015,7 hPa
23:54
12,6 km/h
W-SW
32,1 km/h
01:18  
---
20 Minuten
80 %72 %
15:43
90 %
00:53
10,1 klux40,9 klux
13:13
1:40 Std 
5.
Dezember
3,5 C1,4 C
04:29
6,2 C
23:55
1012,5 hPa1010,4 hPa
16:59
1015,7 hPa
00:04
14,6 km/h
W-SW
32,2 km/h
12:19  
1,7 l/m
6:01 Stunden
87 %76 %
09:44
95 %
20:34
3,8 klux11,7 klux
13:04
--- 
6.
Dezember
8,2 C6,1 C
00:00
9,4 C
15:45
1009,1 hPa1006,6 hPa
15:45
1011,1 hPa
00:00
20,8 km/h
W-SW
36,6 km/h
17:50  
6,5 l/m
11:55 Stunden
93 %86 %
15:25
97 %
01:45
4,3 klux12,1 klux
12:05
--- 
7.
Dezember
4,1 C1,1 C
08:41
9,1 C
14:46
1012,7 hPa1007,3 hPa
23:57
1015,9 hPa
09:01
3,0 km/h
W-SW
18,2 km/h
14:31  
0,5 l/m
1:31 Stunden
94 %77 %
14:51
99 %
10:51
20,1 klux42,5 klux
11:36
5:45 Std 
8.
Dezember
5,8 C3,9 C
00:07
7,9 C
02:42
1012,4 hPa1004,7 hPa
02:42
1020,6 hPa
22:47
15,8 km/h
W
50,3 km/h
07:12  
4,4 l/m
5:50 Stunden
93 %85 %
14:52
99 %
00:02
7,2 klux35,1 klux
12:37
15 Min 
9.
Dezember
5,0 C1,7 C
05:32
7,0 C
13:22
1025,2 hPa1021,7 hPa
00:07
1026,8 hPa
10:42
4,0 km/h
W-SW
21,2 km/h
08:42  
---
91 %83 %
13:27
98 %
05:52
12,8 klux47,2 klux
12:02
2:30 Std 
10.
Dezember
6,9 C6,1 C
00:53
8,8 C
12:23
1022,4 hPa1021,2 hPa
12:23
1025,6 hPa
00:53
18,9 km/h
W
42,8 km/h
13:08  
12,9 l/m
10:40 Stunden
95 %83 %
16:23
99 %
07:53
6,5 klux45,6 klux
12:08
10 Min 
11.
Dezember
4,6 C0,3 C
23:55
6,7 C
05:49
1024,8 hPa1021,4 hPa
05:49
1028,5 hPa
23:55
10,7 km/h
NO
30,4 km/h
00:19  
4,1 l/m
8:35 Stunden
91 %83 %
14:59
98 %
00:04
3,2 klux8,3 klux
11:54
--- 
12.
Dezember
0,6 C-0,4 C
20:05
2,0 C
14:15
1026,8 hPa1025,1 hPa
15:20
1028,5 hPa
01:40
0,5 km/h
N-NO
9,6 km/h
16:10  
6,1 l/m
12:30 Stunden
98 %96 %
00:00
99 %
02:20
4,14 klux15,00 klux
13:50
--- 
13.
Dezember
-1,0 C-3,4 C
23:56
0,7 C
00:01
1023,7 hPa1023,3 hPa
03:16
1025,3 hPa
00:36
1,3 km/h
N-NO
18,6 km/h
04:21  
1,8 l/m
5:05 Stunden
92 %81 %
21:31
99 %
00:01
4,3 klux24,8 klux
09:56
35 Min 
14.
Dezember
-2,9 C-4,7 C
23:52
-2,1 C
20:11
1022,7 hPa1021,6 hPa
20:11
1024,0 hPa
01:41
1,8 km/h
O-NO
13,3 km/h
14:51  
---
84 %79 %
11:21
92 %
02:21
5,3 klux12,6 klux
11:26
--- 
15.
Dezember
-2,3 C-5,0 C
00:22
-0,3 C
13:37
1019,2 hPa1017,3 hPa
17:17
1022,0 hPa
00:22
4,2 km/h
NO
27,3 km/h
15:17  
---
84 %77 %
18:32
93 %
03:42
9,8 klux37,1 klux
12:02
1:25 Std 
16.
Dezember
-2,6 C-4,1 C
23:59
-1,3 C
12:43
1013,2 hPa1010,3 hPa
19:18
1017,4 hPa
00:23
0,2 km/h
SO
11,6 km/h
15:43  
---
86 %80 %
00:03
91 %
09:03
8,6 klux37,0 klux
10:58
1:35 Std 
17.
Dezember
-5,8 C-8,8 C
09:09
-1,4 C
14:59
1010,4 hPa1009,0 hPa
14:59
1012,1 hPa
23:45
1,4 km/h
SO
16,1 km/h
15:09  
---
86 %65 %
15:09
93 %
02:49
15,5 klux38,3 klux
12:44
4:45 Std 
18.
Dezember
-8,5 C-13,0 C
23:56
-3,6 C
14:35
1009,5 hPa1006,2 hPa
14:35
1012,5 hPa
05:25
3,7 km/h
NO
20,1 km/h
19:10  
0,5 l/m
5:15 Stunden
88 %77 %
22:00
92 %
09:40
7,2 klux30,4 klux
12:05
40 Min 
19.
Dezember
-14,5 C-17,7 C
23:02
-10,4 C
14:51
1010,1 hPa1008,6 hPa
00:01
1012,3 hPa
21:51
1,0 km/h
NO
21,3 km/h
05:01  
---
25 Minuten
81 %69 %
15:11
85 %
09:31
11,8 klux27,2 klux
12:56
2:45 Std 
20.
Dezember
-10,4 C-18,1 C
00:37
-2,2 C
22:22
1004,9 hPa998,9 hPa
20:17
1011,4 hPa
00:37
13,4 km/h
W-SW
37,8 km/h
11:37  
0,8 l/m
4:50 Stunden
86 %78 %
10:52
92 %
19:47
5,9 klux31,0 klux
10:27
25 Min 
21.
Dezember
-4,2 C-9,5 C
09:08
-0,6 C
23:39
1001,8 hPa992,3 hPa
23:49
1007,0 hPa
08:33
11,2 km/h
O-SO
35,5 km/h
19:33  
---
2:56 Stunden
89 %82 %
00:03
94 %
21:58
10,9 klux46,6 klux
11:33
2:40 Std 
22.
Dezember
2,5 C-0,6 C
00:04
6,1 C
12:34
989,6 hPa985,5 hPa
10:19
993,3 hPa
23:54
17,6 km/h
W-SW
37,3 km/h
14:14  
3,0 l/m
10:55 Stunden
94 %86 %
16:04
97 %
05:54
4,7 klux13,9 klux
13:34
--- 
23.
Dezember
0,1 C-0,6 C
10:49
0,7 C
19:54
998,3 hPa992,2 hPa
01:24
1001,6 hPa
16:59
3,8 km/h
O-SO
25,3 km/h
20:49  
1,5 l/m
4:05 Stunden
98 %95 %
14:29
99 %
01:39
5,0 klux11,5 klux
11:49
--- 
24.
Dezember
1,3 C0,3 C
00:01
2,7 C
23:27
994,0 hPa985,7 hPa
23:27
999,5 hPa
00:01
3,6 km/h
O-SO
21,2 km/h
03:16  
4,4 l/m
5:56 Stunden
97 %95 %
13:31
99 %
09:31
4,3 klux10,6 klux
12:51
--- 
25.
Dezember
3,8 C2,3 C
22:28
7,1 C
07:17
993,7 hPa983,3 hPa
05:16
1007,4 hPa
23:18
29,0 km/h
W
58,3 km/h
12:27  
7,8 l/m
4:35 Stunden
89 %79 %
21:47
99 %
00:37
4,2 klux34,0 klux
11:32
10 Min 
26.
Dezember
1,4 C-2,6 C
23:54
6,0 C
14:53
1009,7 hPa1007,4 hPa
00:03
1011,7 hPa
10:28
8,8 km/h
W-SW
35,4 km/h
00:33  
---
86 %74 %
15:38
95 %
23:49
18,9 klux46,8 klux
12:53
5:45 Std 
27.
Dezember
-0,5 C-4,2 C
08:34
1,9 C
21:19
1006,5 hPa1003,4 hPa
20:09
1009,3 hPa
03:39
12,3 km/h
W-SW
32,2 km/h
21:19  
---
21 Minuten
90 %80 %
11:04
97 %
03:49
10,9 klux44,4 klux
10:39
2:10 Std 
28.
Dezember
2,1 C-1,6 C
23:56
3,2 C
11:40
1006,2 hPa1004,3 hPa
01:30
1009,0 hPa
23:56
13,9 km/h
W
39,7 km/h
05:05  
---
86 %79 %
12:55
93 %
00:00
4,9 klux14,3 klux
11:35
--- 
29.
Dezember
-0,1 C-2,7 C
02:41
1,2 C
19:16
1002,1 hPa996,2 hPa
19:31
1009,1 hPa
00:11
7,4 km/h
O-SO
27,2 km/h
11:21  
16,3 l/m
9:35 Stunden
94 %85 %
11:01
99 %
21:36
3,9 klux10,3 klux
10:01
--- 
30.
Dezember
6,7 C0,7 C
00:02
8,7 C
11:57
993,9 hPa992,2 hPa
13:02
996,3 hPa
00:02
12,5 km/h
W-SW
24,6 km/h
21:47  
1,1 l/m
3:42 Stunden
97 %92 %
21:37
99 %
00:02
4,1 klux12,1 klux
10:52
--- 
31.
Dezember
5,4 C1,7 C
23:14
7,2 C
00:03
993,4 hPa991,4 hPa
14:13
994,6 hPa
05:43
5,3 km/h
W-SW
20,1 km/h
00:28  
10,2 l/m
13:29 Stunden
99 %96 %
00:33
99 %
03:43
4,3 klux17,2 klux
13:28
--- 



Dezember
2009

Temperatur

  

Luftdruck

  

Wind

  

Regen

  

Luftfeuchte

  

Helligkeit

Sonnen-
schein

Min

Max

Min

Max

Max

Max

Min

Max

Max

Max

0,9 C

-18,1 C

00:37 Uhr
20.12.2009

9,4 C

15:45 Uhr
06.12.2009

1009,2 hPa

983,3 hPa

05:16 Uhr
25.12.2009

1028,5 hPa

01:40 Uhr
12.12.2009

9,0 km/h

W-SW

58,3 km/h

12:27 Uhr
25.12.2009

16,3 l/m

9:35 Stunden
29.12.2009

90 %

65 %

15:09 Uhr
17.12.2009

99 %

10:51 Uhr
07.12.2009

8,0 klux

47,90 klux

11:17 Uhr
02.12.2009

5:45 Std

am
07.12.2009

Gesamt

Gesamt

83,6 l/m

24 Tage
131:27 h

37:55 Std


Wetter-Diagramme Dezember 2009     Heinzenberg / Taunus   
TemperaturLuftfeuchte
SolarstrahlungLuftdruck
HelligkeitSonnenschein
RegenmengeRegendauer
Wind-GeschwindigkeitWind-Richtung